Date,TemperatureHighF,TemperatureAvgF,TemperatureLowF,DewpointHighF,DewpointAvgF,DewpointLowF,HumidityHigh,HumidityAvg,HumidityLow,PressureMaxIn,PressureMinIn,WindSpeedMaxMPH,WindSpeedAvgMPH,GustSpeedMaxMPH,PrecipitationSumIn
2013-2-1,31.0,28.7,24.2,14.0,11.1,6.0,60,48,36,30.22,29.79,11,4,24,0.00
2013-2-2,31.4,25.5,19.6,22.0,10.6,7.0,89,55,38,30.30,30.06,9,2,14,0.00
2013-2-3,31.4,26.7,22.1,23.0,20.6,17.0,93,78,63,30.05,29.78,4,0,8,0.01
2013-2-4,32.0,27.8,23.5,22.0,12.3,9.0,77,53,40,29.98,29.79,10,3,16,0.01
2013-2-5,31.2,29.9,28.2,29.0,26.1,19.0,91,86,68,29.97,29.89,5,1,7,0.00
2013-2-6,39.7,33.7,28.8,30.0,22.4,7.0,95,66,39,30.35,29.91,7,2,13,0.01
2013-2-7,33.4,28.7,23.7,25.0,12.7,7.0,73,52,35,30.51,30.33,5,1,9,0.00
2013-2-8,35.3,32.9,27.5,34.0,30.0,25.0,95,89,73,30.33,29.58,12,4,24,0.18
2013-2-9,33.7,27.6,21.6,27.0,18.2,8.0,96,71,42,30.32,29.71,11,3,17,0.01
2013-2-10,38.0,25.5,14.3,27.0,13.2,7.0,86,62,35,30.48,30.32,3,0,7,0.01
2013-2-11,45.6,40.5,30.8,45.0,38.9,27.0,98,93,79,30.33,29.66,6,1,15,0.04
2013-2-12,46.2,41.1,34.5,41.0,28.6,25.0,98,63,48,29.95,29.71,11,2,15,0.04
2013-2-13,45.5,36.0,25.1,32.0,26.2,23.0,94,69,46,29.95,29.68,4,0,8,0.00
2013-2-14,47.7,38.3,30.4,36.0,30.5,24.0,95,76,42,30.00,29.69,7,1,9,0.01
2013-2-15,52.5,41.5,31.8,39.0,35.5,30.0,94,80,56,30.02,29.92,5,1,8,0.00
2013-2-16,43.0,35.7,29.6,34.0,27.4,18.0,91,73,52,29.95,29.71,7,2,17,0.01
2013-2-17,32.3,27.0,17.5,19.0,6.3,0.0,64,42,29,29.97,29.63,18,5,25,0.00
2013-2-18,37.6,26.6,17.4,17.0,6.7,2.0,55,44,28,30.23,29.97,20,4,21,0.00
2013-2-19,46.7,40.0,28.0,43.0,33.1,17.0,95,77,53,30.21,29.66,13,3,23,0.15
2013-2-20,38.7,31.7,25.6,26.0,14.6,9.0,66,50,40,29.96,29.70,18,4,20,0.15
2013-2-21,35.9,28.7,24.2,16.0,13.1,11.0,66,53,42,30.26,29.96,13,4,20,0.00
2013-2-22,40.5,32.8,25.7,32.0,23.5,16.0,81,69,54,30.39,30.25,5,2,12,0.00
2013-2-23,43.8,39.2,36.1,43.0,37.1,32.0,96,92,82,30.28,29.78,8,2,13,0.33
2013-2-24,46.9,39.4,33.5,39.0,33.2,24.0,96,79,57,29.94,29.73,8,2,15,0.35
2013-2-25,46.5,38.2,29.6,29.0,26.2,24.0,79,63,46,30.22,29.95,5,1,10,0.00
2013-2-26,44.9,38.0,29.1,35.0,31.8,27.0,96,79,61,30.29,29.90,9,3,17,0.12
2013-2-27,50.3,44.9,37.4,48.0,41.8,36.0,97,89,74,29.89,29.48,11,4,31,1.12
2013-2-28,50.4,44.3,40.2,40.0,36.2,31.0,92,74,58,29.62,29.53,6,1,7,0.00